Regional Weather Roundup
Issued by NWS

Home | Current Version | Previous Version | Graphics & Text | Print | Product List | Glossary On
Versions: 1 2 3 4 5 6 7 8 9 10 11 12 13 14 15 16 17 18 19 20 21 22 23 24 25 26 27 28 29 30 31 32 33 34 35 36 37 38 39 40 41 42 43 44 45 46 47 48 49 50
000
ASUS43 KDMX 182201
RWRIA

WEATHER ROUNDUP FOR IOWA
NATIONAL WEATHER SERVICE DES MOINES IA
500 PM CDT MON SEP 18 2017

NOTE: "FAIR" INDICATES FEW OR NO CLOUDS BELOW 12,000 FEET WITH NO
SIGNIFICANT WEATHER AND/OR OBSTRUCTIONS TO VISIBILITY.

* - THESE STATIONS ARE NOT NWS STATIONS...THUS NOT UNDER NWS
QUALITY CONTROL.  THEY ALSO DO NOT REPORT WEATHER SUCH
AS PRECIPITATION OR FOG.

IAZ001>003-012>014-020>022-031>034-043>046-182300-
   NORTHWEST IOWA

CITY           SKY/WX    TMP DP  RH WIND       PRES   REMARKS
CARROLL *      CLOUDY    70  66  88 S7        29.91F
CHEROKEE *     CLOUDY    73  68  86 SW8       29.88F
DENISON *      CLOUDY    70  66  88 S6        29.91F
LE MARS *      PTSUNNY   73  66  78 S12       29.87S
ORANGE CITY *  MOSUNNY   73  70  88 S8        29.88S
SHELDON *      CLOUDY    72  66  83 S7G13     29.87S
SIOUX CITY     CLOUDY    74  67  78 SW7       29.87F
SPENCER        PTSUNNY   70  66  87 S9        29.90F
STORM LAKE *   CLOUDY    72  66  83 S8        29.90F
$$

IAZ055>058-069>071-079>083-090>094-182300-
   SOUTHWEST IOWA

CITY           SKY/WX    TMP DP  RH WIND       PRES   REMARKS
ATLANTIC *     CLOUDY    73  64  73 S7        29.91F
AUDUBON *      CLOUDY    72  64  78 S8        29.92F
CLARINDA *     CLOUDY    73  68  83 W3        29.94R
COUNCIL BLFS * CLOUDY    72  70  94 S10       29.90F
CRESTON *      CLOUDY    70 -35   1 CALM      29.96R
HARLAN  *      CLOUDY    72  66  83 S9        29.93F
LAMONI         CLOUDY    71  68  90 SE6       29.94S
RED OAK *      PTSUNNY   72  66  83 S7        29.92S
SHENANDOAH *   MOSUNNY   75  68  78 VRB6      29.91F
$$

IAZ047>049-059>061-072>074-084-182300-
   CENTRAL IOWA

CITY           SKY/WX    TMP DP  RH WIND       PRES   REMARKS
AMES           CLOUDY    69  65  86 SE6       29.94S
ANKENY *       CLOUDY    70  66  88 SE7       29.93F
BOONE *        CLOUDY    68  64  88 S5        29.93F FOG
CHARITON *     LGT RAIN  68  66  94 E8        29.93F
DES MOINES     CLOUDY    70  65  84 S7        29.92F
GRINNELL*      RAIN      67  64  90 CALM      29.96F
KNOXVILLE *    MOSUNNY   68  66  94 SE5       29.93F
MARSHALLTOWN   CLOUDY    67  65  93 SE5       29.94F
NEWTON *       CLOUDY    66  64  94 S9        29.94F
PELLA *        LGT RAIN  67  66  96 SE3       29.95F
PERRY *        PTSUNNY   70  67  90 SE5       29.92F
$$

IAZ004>006-015-016-023>025-035-036-182300-
   NORTH CENTRAL IOWA

CITY           SKY/WX    TMP DP  RH WIND       PRES   REMARKS
ALGONA *       CLOUDY    64  64 100 SE12      29.93S FOG
CLARION *      CLOUDY    66  64  94 SE10      29.94F
ESTHERVILLE    LGT RAIN  62  62 100 SE8       29.91F FOG
FORT DODGE *   CLOUDY    65  63  93 SE8       29.93F
MASON CITY     CLOUDY    64  59  83 SE9       29.97F
FOREST CITY *  CLOUDY    64  61  88 SE10      29.95F
WEBSTER CITY * CLOUDY    66  63  88 SE7       29.92F
IOWA FALLS *   CLOUDY    67  63  86 SE6       29.96F
$$

IAZ007>011-017>019-026>030-037>042-050>054-066-182300-
   NORTHEAST IOWA

CITY           SKY/WX    TMP DP  RH WIND       PRES   REMARKS
CEDAR RAPIDS   MOSUNNY   75  61  61 S6        29.95F
CHARLES CITY * CLOUDY    63  63 100 E6        29.98F
CLINTON *      PTSUNNY   78  63  59 S5        29.97F HX  80
DECORAH *      CLOUDY    63  59  88 CALM      29.99F
DUBUQUE        CLOUDY    73  57  57 E5        30.00F
MONTICELLO *   CLOUDY    77  61  57 VRB3      29.96F
OELWEIN *      MOSUNNY   66  61  82 CALM      29.98F
WATERLOO       CLOUDY    67  59  75 SE3       29.96F
$$

IAZ064-065-067-068-078-182300-
   EAST CENTRAL IOWA

CITY           SKY/WX    TMP DP  RH WIND       PRES   REMARKS
DAVENPORT      CLOUDY    79  62  56 S7        29.98F HX  80
IOWA CITY      CLOUDY    79  62  56 SE5       29.96F HX  80
MUSCATINE *    CLOUDY    79  63  57 SE9       29.95F HX  80
QUAD CITIES    CLOUDY    80  62  54 S6        29.95F HX  81
$$

IAZ062-063-075>077-085>089-095>099-182300-
   SOUTHEAST IOWA

CITY           SKY/WX    TMP DP  RH WIND       PRES   REMARKS
BURLINGTON     CLOUDY    78  65  63 CALM      29.95F HX  80
FAIRFIELD *    CLOUDY    72  66  83 SW5       29.96S HAZE
FORT MADISON * CLOUDY    79  66  65 CALM      29.96F HX  81
KEOKUK *       CLOUDY    79  64  61 CALM      29.94F HX  81
OSKALOOSA *    LGT RAIN  68  66  95 SE5       29.95F
OTTUMWA        LGT RAIN  72  68  87 E6        29.94F
WASHINGTON *   CLOUDY    75  72  88 CALM      29.96F
$$

ABBREVIATIONS USED IN REMARKS
   TC - TEMPERATURES IN CELSIUS
  WCI - WIND CHILL INDEX
   HX - HEAT INDEX
  VSB - VISIBILITY
$$





USA.gov is the U.S. government's official web portal to all federal, state and local government web resources and services.